Weather History for KMCB - March, 2015

Change the Weather History Date:

Sunday, March 29, 2015

  Actual Average Record
Temperature  
Mean Temperature 60 °F -  
Max Temperature 77 °F 73 °F 86 °F (1974)
Min Temperature 44 °F 51 °F 34 °F (1955)
Degree Days  
Heating Degree Days 6    
Growing Degree Days 10 (Base 50)    
Moisture  
Dew Point 46 °F    
Average Humidity 64    
Maximum Humidity 87    
Minimum Humidity 50    
Precipitation  
Precipitation 0.00 in - - ()
Sea Level Pressure  
Sea Level Pressure 30.23 in    
Wind  
Wind Speed 7 mph (SSE)    
Max Wind Speed 17 mph    
Max Gust Speed 24 mph    
Visibility 10 miles    
Events      
Averages and records for this station are not official NWS values.
T = Trace of Precipitation, MM = Missing Value Source: NWS Daily Summary

Daily Weather History Graph

Daily Weather History Graph

Search for Another Location

Airport or City:

Trip Planner

Search our weather history database for the weather conditions in past years. The results will help you decide how hot, cold, wet, or windy it might be!

Date:

Astronomy

Mar. 29, 2015 Rise Set
Actual Time 6:54 AM CDT 7:19 PM CDT
Civil Twilight 6:30 AM CDT 7:43 PM CDT
Nautical Twilight 6:01 AM CDT 8:11 PM CDT
Astronomical Twilight 5:33 AM CDT 8:40 PM CDT
Moon 2:32 PM CDT (3/29) 3:22 AM CDT (3/29)
Length of Visible Light 13h 13m
Length of Day
12h 24m
Waxing Gibbous, 72% of the Moon is Illuminated
Mar 29
Waxing Gibbous
Apr 4
Full
Apr 11
Last Quarter
Apr 18
New
Apr 25
First Quarter

Hourly Weather History & Observations

Time (CDT) Temp. Windchill Dew Point Humidity Pressure Visibility Wind Dir Wind Speed Gust Speed Precip Events Conditions
12:53 AM 50.0 °F - 37.0 °F 61% 30.25 in 10.0 mi Variable 4.6 mph - N/A   Scattered Clouds
1:06 AM 50.0 °F - 37.0 °F 61% 30.25 in 10.0 mi East 5.8 mph - N/A   Mostly Cloudy
1:23 AM 48.9 °F - 37.0 °F 64% 30.25 in 10.0 mi Variable 3.5 mph - N/A   Scattered Clouds
1:53 AM 48.0 °F - 37.0 °F 66% 30.24 in 10.0 mi East 6.9 mph - N/A   Clear
2:15 AM 48.0 °F - 36.0 °F 63% 30.25 in 10.0 mi Variable 5.8 mph - N/A   Mostly Cloudy
2:53 AM 46.9 °F - 35.1 °F 63% 30.24 in 10.0 mi North - - N/A   Overcast
3:53 AM 46.9 °F - 33.1 °F 59% 30.23 in 10.0 mi East 5.8 mph - N/A   Overcast
4:53 AM 45.0 °F 41.8 °F 33.1 °F 63% 30.24 in 10.0 mi East 5.8 mph - N/A   Mostly Cloudy
5:53 AM 44.1 °F 41.5 °F 33.1 °F 65% 30.25 in 10.0 mi Variable 4.6 mph - N/A   Partly Cloudy
6:18 AM 44.1 °F 40.8 °F 34.0 °F 68% 30.26 in 10.0 mi ESE 5.8 mph - N/A   Mostly Cloudy
6:53 AM 44.1 °F 40.8 °F 33.1 °F 65% 30.27 in 10.0 mi ESE 5.8 mph - N/A   Mostly Cloudy
7:53 AM 46.0 °F 43.9 °F 34.0 °F 63% 30.28 in 10.0 mi ESE 4.6 mph - N/A   Mostly Cloudy
8:45 AM 50.0 °F - 37.0 °F 61% 30.29 in 10.0 mi ESE 6.9 mph - N/A   Partly Cloudy
8:53 AM 50.0 °F - 37.0 °F 61% 30.29 in 10.0 mi SSE 6.9 mph - N/A   Partly Cloudy
9:53 AM 55.9 °F - 43.0 °F 62% 30.30 in 10.0 mi SE 11.5 mph - N/A   Clear
10:53 AM 62.1 °F - 46.9 °F 58% 30.30 in 10.0 mi SE 9.2 mph - N/A   Clear
11:53 AM 68.0 °F - 52.0 °F 56% 30.27 in 10.0 mi South 11.5 mph 18.4 mph N/A   Clear
12:53 PM 73.0 °F - 55.9 °F 55% 30.25 in 10.0 mi South 17.3 mph 24.2 mph N/A   Clear
1:53 PM 75.0 °F - 55.9 °F 51% 30.22 in 10.0 mi South 12.7 mph 24.2 mph N/A   Mostly Cloudy
2:53 PM 75.0 °F - 55.9 °F 51% 30.19 in 10.0 mi SSW 16.1 mph - N/A   Mostly Cloudy
3:53 PM 75.9 °F - 55.9 °F 50% 30.16 in 10.0 mi SSW 12.7 mph - N/A   Mostly Cloudy
4:53 PM 75.9 °F - 57.0 °F 52% 30.15 in 10.0 mi SSW 11.5 mph 19.6 mph N/A   Scattered Clouds
5:53 PM 73.0 °F - 59.0 °F 61% 30.14 in 10.0 mi South 15.0 mph - N/A   Scattered Clouds
6:53 PM 72.0 °F - 60.1 °F 66% 30.15 in 10.0 mi South 13.8 mph - N/A   Mostly Cloudy
7:53 PM 69.1 °F - 60.1 °F 73% 30.16 in 10.0 mi South 11.5 mph - N/A   Clear
8:53 PM 66.0 °F - 60.1 °F 81% 30.17 in 10.0 mi SSE 10.4 mph - N/A   Clear
9:53 PM 64.0 °F - 60.1 °F 87% 30.18 in 10.0 mi South 5.8 mph - N/A   Clear
10:53 PM 64.0 °F - 57.9 °F 80% 30.18 in 10.0 mi SSW 6.9 mph - N/A   Clear
11:53 PM 64.0 °F - 57.9 °F 80% 30.17 in 10.0 mi SSW 8.1 mph - N/A   Clear